RH
23 25 33 23 25 34 32 29 24 25 31 40 46 45 61 68 63 49 58 77 82 91 87 82 76 66 65 60 84 70 66 63 63 61 61 65 65 70 76 76 80 80 84 84 86 90 91 91 93
28 36 28 31 34 38 32 26 25 31 35 46 42 47 61 56 69 70 63 60 95 99 96 83 80 90 69 53 86 80 70 65 60 60 65 71 72 76 73 84 85 86 86 88 90 92 93 89 76
22 29 29 38 44 35 34 26 22 29 44 44 43 54 66 59 68 74 58 61 98 99 97 91 80 83 78 61 54 58 67 56 40 63 73 69 74 75 86 88 87 86 85 88 89 92 92 73 52
23 24 28 32 29 28 27 23 24 29 50 51 47 52 50 51 69 68 70 69 82 99 95 90 82 76 68 64 54 51 44 62 40 45 65 76 80 82 90 88 88 85 88 90 92 90 71 69 43
25 30 32 30 29 26 26 23 20 42 45 49 52 48 54 54 56 61 79 69 90 92 87 87 80 71 62 57 47 42 54 74 82 86 81 80 87 88 91 92 90 87 87 80 60 59 69 64 48
32 30 33 31 27 23 22 21 37 43 44 49 56 58 58 63 69 72 80 84 83 94 69 64 80 72 78 62 56 49 51 68 79 82 78 79 84 87 91 91 90 81 63 53 52 58 66 62 54
30 36 32 29 29 26 19 39 40 49 46 52 56 59 56 88 77 90 95 74 74 75 81 79 70 80 74 83 64 53 60 70 82 87 70 82 84 85 91 91 79 57 52 50 56 61 65 58 57
33 34 32 33 29 24 17 34 44 49 48 63 60 65 56 78 91 95 99 86 84 83 95 83 93 80 75 82 59 57 59 65 62 75 80 83 81 82 86 80 60 51 50 51 58 64 63 63 56
25 35 38 29 26 19 17 23 48 53 54 64 73 66 72 95 90 99 100 98 96 100 100 96 94 99 97 85 80 79 70 66 70 81 57 86 75 77 72 63 52 49 48 46 54 61 65 63 57
30 38 32 25 21 20 21 22 45 52 59 60 62 66 96 99 99 97 98 96 99 99 98 100 98 87 92 99 95 82 80 72 73 82 80 88 70 68 57 55 52 50 47 45 46 58 62 62 50
28 33 27 22 21 22 21 31 52 59 57 62 62 60 80 99 90 96 96 96 92 91 94 100 97 85 88 93 99 100 96 88 86 84 90 97 81 69 50 57 59 52 46 44 47 58 59 49 45
23 23 21 19 19 25 26 38 54 60 50 62 69 76 82 98 94 95 95 95 98 94 99 98 96 92 99 100 100 100 98 90 78 85 91 100 98 63 51 53 54 52 48 45 47 45 44 44 38
24 21 21 22 25 27 34 43 50 65 74 89 93 88 93 92 92 97 97 97 98 97 100 95 99 99 95 100 100 100 97 79 80 98 90 100 96 59 47 48 50 52 51 48 45 43 40 36 34
24 24 27 27 26 26 34 37 47 47 92 93 93 97 81 88 92 98 99 100 100 99 100 98 99 100 100 100 100 100 100 91 84 98 100 99 88 54 41 45 48 51 53 52 50 48 44 40 35
26 31 31 28 24 24 32 37 54 45 95 96 95 98 84 84 91 94 96 100 100 100 100 99 96 100 100 100 99 99 100 99 68 99 94 88 70 59 49 45 45 47 54 56 54 50 44 37 32
32 32 38 25 26 25 31 38 32 57 95 98 97 86 85 90 86 97 99 100 98 99 100 100 98 100 99 99 100 98 93 95 99 98 64 59 63 66 61 53 53 45 56 56 54 51 44 35 33
42 47 40 36 27 29 32 40 32 62 92 97 99 87 80 90 90 99 100 100 100 100 100 100 100 99 93 94 96 94 87 86 98 78 71 59 50 70 68 56 46 53 60 58 56 49 46 35 35
48 46 43 44 31 33 39 44 34 48 66 90 98 88 82 86 86 93 99 100 99 100 99 100 100 99 97 97 93 92 92 87 81 74 82 74 71 72 71 56 54 53 61 61 57 54 42 36 35
37 42 44 40 30 30 35 37 32 40 63 78 98 92 90 98 79 95 99 100 100 100 99 99 100 100 97 92 93 92 91 80 74 65 61 58 68 72 64 54 53 57 62 64 62 53 42 40 39
39 42 44 39 30 34 35 36 31 42 55 60 81 98 97 98 93 92 100 100 100 100 100 99 99 100 91 92 91 92 87 87 82 61 44 44 44 56 57 53 57 56 64 67 65 59 50 43 40
43 43 42 41 33 34 36 40 33 35 59 69 85 92 92 95 96 80 96 100 100 100 100 100 100 98 91 88 86 90 86 84 82 80 65 66 66 62 50 54 58 62 70 67 67 64 59 45 45
47 38 36 38 44 53 33 57 38 30 49 71 82 94 94 92 93 84 78 98 100 100 100 100 94 94 87 84 82 84 82 77 61 59 67 74 74 72 62 63 70 72 73 71 68 68 64 51 46
41 35 42 42 48 45 41 54 45 48 44 47 66 83 91 90 91 90 79 83 98 98 99 99 98 92 85 81 75 71 79 74 65 58 59 61 64 68 64 64 66 72 79 77 72 71 64 54 51
34 38 37 44 52 68 49 50 52 41 44 41 50 71 80 93 92 89 85 85 86 90 96 94 98 94 87 83 78 68 64 71 67 63 66 63 56 57 61 64 61 60 68 72 78 76 70 62 55
37 44 60 62 67 70 49 69 51 35 35 39 37 57 70 79 93 94 97 96 95 96 96 99 100 100 96 88 81 75 68 65 63 62 63 69 64 57 52 55 55 56 65 70 76 79 78 69 63
40 44 68 62 66 54 65 75 52 38 36 37 35 43 63 75 82 90 93 94 97 97 98 98 99 100 99 95 90 83 77 74 70 68 68 67 65 60 51 50 51 57 63 70 74 82 87 84 73
35 48 37 47 63 75 64 56 39 34 29 32 31 55 64 71 78 80 86 88 92 98 100 100 100 100 95 94 90 86 81 77 75 71 69 70 64 64 60 57 58 60 63 68 76 81 86 89 81
26 31 41 63 71 77 65 61 48 33 33 30 29 56 59 70 75 73 77 82 85 92 96 99 96 91 89 88 87 86 81 76 73 73 73 74 71 67 63 65 69 76 79 81 85 89 94 95 89
37 36 42 43 61 59 62 60 48 36 33 34 28 37 58 65 73 70 67 68 76 85 92 95 94 89 86 83 80 79 77 73 71 70 70 72 71 66 62 62 70 79 86 87 95 97 98 99 99
28 33 33 45 53 70 61 44 31 36 34 36 29 26 41 60 64 71 70 68 71 82 88 91 92 87 82 76 75 78 78 77 77 75 72 77 73 68 72 83 87 100 98 99 100 100 100 78 100
Wind_Speed
2 3 2 5 4 5 3 4 2 4 3 2 3 0 4 3 4 5 4 4 5 18 26 25 22 27 32 31 36 43 44 46 43 40 37 36 35 36 35 37 38 38 36 32 32 30 31 29 27
4 3 4 2 4 3 5 4 5 5 3 4 1 1 4 5 3 5 4 5 10 19 26 32 28 28 33 34 32 41 43 44 39 37 36 35 35 35 36 37 39 40 38 34 30 30 28 28 28
4 3 4 4 3 3 4 5 7 3 5 1 2 4 2 4 3 4 6 3 17 21 28 28 32 34 35 37 36 39 38 38 40 35 35 32 34 35 35 38 39 39 37 33 29 26 24 27 28
3 5 4 4 4 6 5 7 6 3 2 3 1 6 4 6 2 2 2 8 17 22 28 31 34 38 40 39 39 36 36 33 36 35 32 33 35 35 35 38 38 38 34 30 25 24 27 28 27
5 3 3 1 4 5 5 7 4 4 3 4 6 4 4 4 10 8 8 6 17 24 31 29 32 34 37 41 39 39 39 34 33 36 36 34 32 33 35 35 36 36 33 28 25 24 28 30 27
4 3 3 2 4 5 5 7 3 5 3 2 3 2 5 3 3 7 10 7 12 17 21 27 31 34 36 39 38 36 37 39 39 37 36 37 35 35 36 36 36 34 32 28 24 27 31 30 27
6 4 4 3 5 6 4 3 3 3 2 6 2 3 3 2 3 5 9 8 13 13 16 17 32 37 38 35 40 39 39 37 36 37 39 37 37 37 37 37 37 34 29 27 27 32 34 30 27
5 4 2 4 2 7 4 3 2 7 8 2 5 6 5 2 2 3 3 5 11 15 16 20 25 31 30 28 36 37 41 40 34 33 39 38 38 38 37 37 37 34 30 28 31 33 32 28 26
3 3 3 5 4 6 4 3 3 1 2 3 6 4 3 7 4 5 5 7 12 13 12 22 23 25 33 29 33 36 38 38 34 33 34 40 39 37 37 39 37 33 31 30 31 31 30 27 23
4 3 8 7 6 6 11 4 6 4 3 5 5 4 6 9 8 9 8 10 13 12 12 12 15 21 23 30 33 40 39 41 39 32 35 39 39 38 38 39 36 33 30 28 29 30 28 26 23
5 6 5 7 8 6 4 4 7 5 5 9 7 4 7 6 6 8 9 13 15 9 6 7 14 21 27 28 38 41 42 42 38 36 36 33 38 36 38 38 36 33 30 29 30 29 27 24 23
2 8 5 7 4 1 4 1 4 6 8 2 3 1 5 7 8 9 9 10 7 9 4 4 11 21 33 34 39 48 46 43 42 36 34 32 34 36 37 37 35 34 31 30 29 26 24 22 20
5 5 4 8 9 6 2 9 6 8 3 4 3 5 6 5 3 4 6 4 4 7 3 5 2 7 21 33 46 50 47 50 46 34 36 33 36 39 36 34 33 31 29 27 27 25 23 21 18
4 5 8 8 9 5 5 3 3 6 7 6 5 4 5 3 3 4 6 6 7 8 7 7 6 13 18 24 42 40 37 46 43 35 35 36 41 40 38 37 33 30 27 26 25 23 22 19 16
3 5 7 6 5 5 7 5 9 6 9 8 6 5 6 3 2 6 9 6 6 8 9 12 12 20 26 35 40 39 33 33 40 38 39 40 39 42 41 38 36 31 26 25 23 23 20 16 16
3 3 4 4 2 3 7 8 6 6 10 9 7 7 6 5 4 4 6 5 6 9 13 18 18 20 30 33 37 40 37 31 35 41 39 34 40 41 38 37 36 32 28 26 24 23 20 18 18
3 4 4 9 3 2 3 8 5 4 7 7 8 9 8 4 4 4 5 7 8 11 14 18 24 23 28 30 34 29 29 31 34 37 37 39 33 36 35 34 32 31 29 26 24 22 21 20 18
6 4 4 7 3 5 2 11 13 6 8 9 9 11 8 7 6 6 6 8 10 11 13 16 22 29 30 30 31 24 26 31 32 34 35 34 32 35 34 31 32 31 28 25 24 21 20 20 18
4 4 4 6 6 3 9 8 14 7 7 8 10 11 10 6 6 9 9 11 15 14 15 17 21 30 33 32 31 28 28 33 33 33 30 27 25 26 26 28 27 27 28 27 24 23 23 21 19
5 6 9 9 14 7 9 15 12 5 7 8 8 9 9 7 8 9 10 11 14 16 19 22 22 25 33 29 25 22 21 26 28 30 32 29 25 28 30 26 27 28 29 26 26 26 23 19 23
7 13 5 9 8 5 3 7 8 3 4 4 4 8 9 12 11 10 10 12 14 16 20 23 26 29 29 31 30 21 24 22 22 23 26 28 33 30 27 27 29 30 29 30 29 29 27 25 25
10 9 9 7 2 4 3 5 6 4 6 5 7 9 11 12 9 9 12 14 16 16 18 21 26 26 27 32 31 29 26 24 26 30 29 27 26 27 24 26 27 28 29 30 31 32 32 30 25
11 8 9 6 5 2 4 2 7 1 6 10 10 12 10 13 14 12 12 17 18 20 21 22 25 29 31 35 35 31 26 25 28 32 29 29 24 21 22 24 23 24 27 30 31 35 37 35 30
2 3 3 2 2 5 7 7 5 4 6 5 5 10 11 13 12 12 17 16 19 21 23 26 26 29 31 35 37 35 33 30 29 31 31 34 31 28 27 28 28 26 29 30 33 37 37 40 36
5 4 2 2 2 6 4 4 8 7 9 8 10 9 12 13 14 13 14 16 20 21 23 27 28 29 34 36 36 38 37 37 35 35 35 33 33 33 33 30 30 31 32 33 33 36 39 41 39
10 9 6 6 4 4 3 6 6 9 7 8 9 7 8 11 12 15 16 19 24 26 25 24 26 27 31 33 34 34 37 35 35 35 33 34 36 37 37 36 35 37 37 36 36 37 41 39 39
5 5 7 1 2 1 4 6 8 7 8 6 7 7 10 12 14 16 15 22 25 26 29 29 30 30 31 34 34 34 34 35 32 34 35 36 38 38 37 37 39 39 38 39 38 38 39 37 39
10 8 3 0 5 5 4 4 5 6 9 7 7 8 8 8 10 11 13 22 27 27 29 32 34 35 35 36 35 36 36 37 38 35 35 37 39 39 39 39 39 38 38 37 37 36 35 34 37
4 9 3 4 5 5 2 6 8 11 9 7 9 8 8 9 12 13 14 19 21 24 27 30 31 30 30 33 35 37 38 39 38 39 42 40 39 41 42 42 42 43 42 38 35 33 31 29 36
2 8 13 9 6 2 3 10 4 8 6 8 8 8 7 9 9 9 6 11 18 23 26 29 30 33 33 35 35 34 34 36 39 42 41 38 41 43 45 42 43 37 38 37 32 32 28 31 38
Wind_Direction
142 112 82 44 56 63 286 265 259 260 285 97 258 208 235 208 211 235 337 207 225 184 176 176 181 173 165 155 152 157 155 152 153 155 153 152 150 147 143 135 129 126 125 124 123 122 117 115 115
117 108 62 69 87 62 278 259 237 229 217 329 3 33 228 241 217 268 280 203 173 177 180 176 175 169 164 159 150 152 154 153 153 155 155 153 149 148 141 136 133 131 127 127 125 118 115 119 119
109 79 82 92 101 169 223 225 242 250 238 201 318 193 207 227 245 247 210 205 169 170 177 176 174 172 164 165 158 149 152 156 153 157 154 153 151 147 141 139 135 133 132 131 131 129 125 127 121
120 24 38 93 231 246 209 246 229 307 301 220 138 282 274 230 228 344 279 203 182 176 178 177 177 175 168 164 159 156 153 157 155 161 156 153 149 147 145 141 138 136 134 134 137 136 132 131 120
54 57 56 14 258 263 248 266 193 194 230 174 148 261 251 255 244 289 307 267 207 195 186 187 177 175 170 170 164 161 158 157 157 156 156 153 152 150 145 143 140 138 139 138 140 143 137 134 125
50 96 62 252 257 252 267 244 194 175 248 143 190 231 248 252 287 300 283 262 225 221 210 195 182 198 176 169 169 160 158 159 162 160 155 158 159 153 148 145 142 142 140 137 142 150 144 137 129
121 100 208 234 259 303 248 159 167 215 253 242 161 213 270 287 321 301 306 230 233 238 233 219 187 184 175 173 171 166 161 157 163 162 156 165 161 155 152 148 146 140 137 136 138 146 143 139 129
116 101 152 247 247 270 244 207 226 169 244 73 171 225 259 239 189 238 288 238 225 238 229 216 201 193 196 185 181 173 163 160 166 167 164 165 163 158 158 151 144 141 139 134 135 140 141 135 131
144 78 204 240 192 256 230 229 192 142 147 232 205 246 166 147 153 168 196 230 225 213 198 211 204 204 205 207 185 170 165 161 166 174 171 170 164 164 159 151 145 142 141 140 139 143 143 137 134
108 152 222 204 197 258 286 230 191 187 172 251 256 227 156 157 178 188 204 229 233 233 240 223 222 212 208 215 183 176 167 166 165 173 178 168 167 169 159 148 145 145 143 140 143 146 144 141 139
183 216 223 259 233 223 256 283 171 156 264 229 215 217 174 182 210 229 228 231 237 227 204 243 241 230 223 206 187 167 161 163 161 175 180 165 170 168 158 150 146 143 141 142 145 146 146 146 145
198 249 222 271 251 151 258 174 237 174 222 283 219 150 167 182 208 227 225 232 226 168 192 224 245 251 238 233 199 162 159 164 164 185 180 167 169 168 162 156 151 150 151 146 147 146 145 148 143
192 258 225 259 286 254 203 237 225 239 185 133 126 155 170 193 234 273 261 245 200 195 166 182 222 320 264 178 160 152 160 164 170 179 180 168 169 170 165 162 160 155 153 151 150 147 148 149 144
213 245 278 278 259 239 194 285 104 252 163 161 157 173 187 223 188 249 246 234 194 201 179 165 133 88 129 119 130 139 157 159 168 181 176 173 175 169 170 169 166 161 163 162 159 151 155 151 151
234 293 306 261 267 239 158 300 231 216 172 167 170 176 191 199 245 228 247 228 197 184 163 155 147 122 126 132 138 146 148 161 168 182 181 182 172 177 175 172 171 166 170 165 156 158 154 155 157
359 65 341 262 332 295 142 270 265 161 171 176 173 197 190 187 210 224 230 196 206 183 166 155 161 140 141 143 145 157 164 167 176 187 188 182 182 182 180 179 173 168 175 173 164 164 157 166 165
359 241 231 313 285 141 148 276 283 145 191 197 178 202 196 175 208 212 206 177 185 183 171 164 165 160 152 152 148 148 165 180 187 188 185 184 183 186 186 184 171 174 177 176 173 169 169 172 171
194 211 239 250 285 10 217 261 279 229 211 210 188 196 208 208 198 188 182 156 175 167 175 165 161 160 155 150 156 163 176 190 190 187 181 176 186 187 191 186 182 178 183 183 180 176 177 182 178
159 180 233 260 258 339 281 277 279 248 237 222 196 190 197 200 180 175 174 165 150 165 176 172 152 161 156 155 157 167 170 178 176 173 169 161 183 190 191 191 189 184 193 194 188 181 185 184 183
196 245 263 299 280 174 287 299 294 191 240 230 183 179 188 168 175 177 173 166 171 165 167 170 156 154 158 155 155 162 173 168 167 163 174 184 192 197 194 191 197 198 204 204 199 196 190 194 191
216 224 226 222 313 249 268 299 288 258 250 274 206 165 183 175 175 182 178 176 174 174 173 171 166 165 160 159 159 166 167 168 156 159 168 185 200 203 197 210 207 208 215 212 210 209 209 196 199
227 198 229 252 74 257 93 279 293 261 272 264 252 197 176 176 173 178 187 179 180 186 184 181 182 177 168 168 167 177 177 173 182 188 193 201 205 209 202 210 213 219 219 219 222 221 217 215 201
241 156 202 228 210 234 251 279 262 341 284 252 238 232 182 181 175 179 192 191 178 186 191 190 190 187 189 187 183 188 182 187 191 200 208 220 216 216 217 219 219 225 231 233 234 231 222 222 218
117 197 218 148 147 245 206 183 267 211 223 286 247 218 207 174 178 177 183 195 196 189 190 200 197 198 198 197 198 200 196 197 203 209 217 228 229 228 222 223 228 233 238 241 240 234 232 229 228
162 110 295 323 215 233 199 160 250 265 229 220 257 231 215 180 172 175 178 183 192 196 196 195 196 202 205 207 206 206 209 211 210 215 222 229 233 235 234 234 237 243 245 244 243 243 236 233 233
204 177 164 201 217 259 131 227 243 239 270 238 260 247 182 196 182 178 183 188 190 193 198 196 199 204 205 211 209 210 212 214 213 218 223 231 235 239 241 243 247 250 248 246 245 244 244 241 236
181 190 193 190 115 329 230 289 310 261 300 295 251 191 192 199 192 185 179 188 192 198 198 197 198 202 206 212 214 217 221 221 222 226 233 239 241 242 245 249 250 252 253 250 247 243 246 244 238
208 162 178 348 186 232 262 256 223 305 291 302 278 228 208 200 191 193 186 191 195 196 198 201 205 204 204 211 217 222 225 227 229 231 238 242 247 249 250 253 255 258 260 259 255 247 246 243 242
162 219 214 175 166 209 241 253 210 233 249 270 274 249 225 201 194 201 206 200 189 191 194 200 202 206 207 210 215 222 227 231 235 237 239 243 248 250 255 260 262 262 260 258 253 250 244 254 248
259 217 213 225 219 215 210 239 231 220 255 224 247 254 232 210 192 197 189 181 189 191 194 197 197 204 207 211 215 219 222 226 228 233 238 242 248 252 257 258 260 257 263 259 254 252 234 237 236